Regional Weather Roundup
Issued by NWS

Home | Current Version | Previous Version | Graphics & Text | Print | Product List | Glossary On
Versions: 1 2 3 4 5 6 7 8 9 10 11 12 13 14 15 16 17 18 19 20 21 22 23 24 25 26 27 28 29 30 31 32 33 34 35 36 37 38 39 40 41 42 43 44 45 46 47 48 49 50
914
ASUS43 KLSX 130010
RWRMO

WEATHER SUMMARY FOR MISSOURI
NATIONAL WEATHER SERVICE SPRINGFIELD MO
600 PM CST FRI FEB 12 2016

NOTE: "FAIR" INDICATES FEW OR NO CLOUDS BELOW 12,000 FEET WITH NO
       SIGNIFICANT WEATHER AND/OR OBSTRUCTIONS TO VISIBILITY.
       CURRENT SKY AND/OR WEATHER CONDITIONS ARE NOT AVAILABLE FOR
       CHILLICOTHE AND FARMINGTON.

MOZ001>031-035>038-043-044-053-054-130100-
...NORTHERN AND WESTERN MISSOURI...

CITY           SKY/WX    TMP DP  RH WIND       PRES   REMARKS
KANSAS CTY INT PTCLDY    27   9  46 N12       30.50R WCI  17
6HR MIN TEMP:  27; 6HR MAX TEMP:  36;

KANSAS C DTWN  CLEAR     30   6  36 N15       30.51R WCI  19
6HR MIN TEMP:  30; 6HR MAX TEMP:  39;

LEE`S SUMMIT   CLEAR     30   8  39 N15       30.49R WCI  19
6HR MIN TEMP:  30; 6HR MAX TEMP:  38;

ST JOSEPH      CLEAR     25   7  46 N17       30.55R WCI  12
6HR MIN TEMP:  25; 6HR MAX TEMP:  34;

CHILLICOTHE      N/A     24   5  44 N10G18    30.52R WCI  14
6HR MIN TEMP:  24; 6HR MAX TEMP:  35;

KIRKSVILLE     CLEAR     18   1  47 N7        30.49R WCI   9
6HR MIN TEMP:  18; 6HR MAX TEMP:  28; 6HR PCP: TRACE;


$$
MOZ066>068-077>081-088>096-101>105-130100-
...SOUTHWEST MISSOURI...

CITY           SKY/WX    TMP DP  RH WIND       PRES   REMARKS
SPRINGFIELD    CLEAR     38  21  50 N12       30.39R
6HR MIN TEMP:  38; 6HR MAX TEMP:  45;

JOPLIN         PTCLDY    40  25  55 N12       30.43R
6HR MIN TEMP:  40; 6HR MAX TEMP:  46;


$$
MOZ032>034-039>042-045>050-055>058-069>072-130100-
...CENTRAL MISSOURI...

CITY           SKY/WX    TMP DP  RH WIND       PRES   REMARKS
COLUMBIA       CLEAR     28  12  51 NW13      30.44R WCI  17
6HR MIN TEMP:  28; 6HR MAX TEMP:  35;

JEFFERSON CITY CLEAR     32  11  41 NW14G20   30.46R WCI  22
6HR MIN TEMP:  32; 6HR MAX TEMP:  37;

ROLLA          CLEAR     30  14  51 NW12      30.39R WCI  20
6HR MIN TEMP:  30; 6HR MAX TEMP:  38; 6HR PCP: TRACE;

SEDALIA        CLEAR     31  10  41 N15       30.47R WCI  20
6HR MIN TEMP:  31; 6HR MAX TEMP:  39;

WHITEMAN AFB   PTCLDY    29  10  44 N14       30.46R WCI  19
WARRENSBURG    PTCLDY    30   9  40 N12G18    30.48R WCI  21
OSAGE BEACH    CLEAR     32  12  43 N7        30.44R WCI  26

$$
MOZ051-052-059>065-130100-
...EAST CENTRAL MISSOURI...

CITY           SKY/WX    TMP DP  RH WIND       PRES   REMARKS
ST LOUIS INTL  PTCLDY    28  14  55 NW12      30.41R WCI  18
6HR MIN TEMP:  28; 6HR MAX TEMP:  33;

SPIRIT OF STL  CLEAR     28  13  53 NW9       30.42R WCI  19
6HR MIN TEMP:  28; 6HR MAX TEMP:  35;

ST CHARLES     CLEAR     26  14  60 NW9       30.43R WCI  17
6HR MIN TEMP:  26; 6HR MAX TEMP:  32;


$$
MOZ072>076-082>087-097>100-106>115-130100-
...SOUTH CENTRAL AND SOUTHEAST MISSOURI...

CITY           SKY/WX    TMP DP  RH WIND       PRES   REMARKS
CAPE GIRARDEAU CLEAR     35  22  58 N10       30.37R WCI  27
6HR MIN TEMP:  35; 6HR MAX TEMP:  41;

FARMINGTON     CLEAR     31  18  58 N10       30.38R WCI  22
6HR MIN TEMP:  31; 6HR MAX TEMP:  39;

POPLAR BLUFF   CLEAR     40  23  50 N12       30.34R
6HR MIN TEMP:  40; 6HR MAX TEMP:  49;

WEST PLAINS    CLEAR     40  19  43 N8        30.35R
6HR MIN TEMP:  40; 6HR MAX TEMP:  49;


$$




USA.gov is the U.S. government's official web portal to all federal, state and local government web resources and services.